COSMOS 1275 DEB, 13799

Orbit data source: Space-Track

COSMOS 1275 DEB, 13799 is space debris in LEO originally from a launch on Thu, 04 Jun 1981 UTC launched from the Plesetsk Missile And Space Complex (PKMTR). Debris objects in space refer to the collection of defunct objects orbiting the Earth. Examples of debris include non-operational satellites, rocket bodies, and fragments generated from explosions, collisions, or faulty payload assembly.

Loading next visibility...
Identifier
13799, 1981-053GT
Orbit
LEO
Country
Flag of CISCIS
Related business
Manufacturer
Unknown
Mission
Spacecraft
Bus & Motor
Unknown
Mass
Unknown
Launch date (UTC)
1981-06-04 (45 years ago)
Launch vehicle
Unknown
Launch site
Plesetsk Missile And Space Complex (PKMTR)
Object type
Payload
Rocket body
Debris
Shape & HBR
Unknown shape, 0.1 m
Radar Cross Section
Medium (>0.1 m² and <1 m²)

Expand to show TLE details & history
Last TLE update: 12 hours ago

TLE from 12 hours ago
0 COSMOS 1275 DEB
1 13799U 81053GT  26207.05936815  .00000627  00000-0  57445-3 0  9993
2 13799  83.1356 322.7612 0087201  16.6900 159.2798 13.79817469189363
Epoch: 2026-07-26T01:25Z
TLE epoch observation values (Epoch: 2026-07-26T01:25:29.408Z)
Latitude
3.56053°
Longitude
177.19896°
Altitude
1,027.023 km
Speed
7.308 km/s
True Right ascension
09h 29m 20s
True Declination
3° 32' 24"
Sunlit
Object was in daylight at epoch
Visualization orbit readout
Latitude
Unknown
Longitude
Unknown
Altitude
Unknown
Speed
Unknown
Apparent Right ascension
Unknown
Apparent Declination
Unknown
Sunlit
N/A
Visualization observer readout
Local Sidereal Time
02:20:26
Azimuth
Unknown
Elevation
Unknown
Doppler factor
Unknown
Orbital elements
Apogee altitude
1,025.673 km
Perigee altitude
897.665 km
Semi-major axis
7,339.806 km
Eccentricity
0.00872
Inclination
83.1356°
RAAN
322.7612°
Arg. of periapsis
16.69°
True anomaly
159.62977°
Mean anomaly
159.2798°
Eccentric anomaly
159.45514°
Mean motion
3.45157 °/min
Orbital period
104.3 mins
BSTAR
0.00057445
Loading maneuver chart data...
Computing Atmospheric mass density...
Loading historical data...
Loading historical data...
Loading historical data...
Loading historical data...
Loading historical data...
Loading historical data...
Loading historical data...

Documentation

Showing up to 5 results
|